Retour au catalogue

SWARM B

ActifSciencePO
NORAD 39451·PAYLOAD·🇪🇺 EU

Lancé Nov 22, 2013 depuis Plesetsk Cosmodrome

Loading…

Prochains Passages (prochaines 24 heures)

TLE

FraisSource: CelesTrak SupGP

Époque: Sep 14, 2026, 00:00 UTC

1 39451C 13067A   26257.00000000  .00002683  00000+0  95510-4 0  2570
2 39451  87.7432 315.3501 0003416  98.3317 133.6385 15.29034260    10

Suivez SWARM B en temps réel avec AllMySat

Download on the App Store